This demonstration page uses our WeatherBlox Daily Observations layout. Learn more.

Hourly Observations for February 2, 2020

Temp ( °F °C ) Dew Point ( °F °C ) Humidity (%) Winds ( mph kmh ) Pressure ( in mb ) Visibility ( mi km ) Precip ( " mm )
12:54 am 00:54 Clear 44 6.7 31 -0.6 60 60 VRB 3 6 29.77 1008 10 16.0934 0 0
1:54 am 01:54 Clear 45 7.2 30 -1.1 56 56 WNW 3 6 29.77 1008 10 16.0934 0 0
2:54 am 02:54 Clear 41 5 30 -1.1 65 65 W 6 9 29.76 1008 10 16.0934 0 0
3:54 am 03:54 Clear 41 5 30 -1.1 65 65 W 6 9 29.76 1008 10 16.0934 0 0
4:54 am 04:54 Clear 41 5 29 -1.7 62 62 WNW 7 11 29.75 1008 10 16.0934 0 0
5:54 am 05:54 Clear 38 3.3 29 -1.7 70 70 SW 6 9 29.79 1009 10 16.0934 0 0
6:54 am 06:54 Clear 33 0.6 27 -2.8 78 78 SSW 7 11 29.8 1009 10 16.0934 0 0
7:54 am 07:54 Sunny 31 -0.6 26 -3.3 82 82 S 8 13 29.83 1010 10 16.0934 0 0
8:54 am 08:54 Sunny 40 4.4 30 -1.1 68 68 NW 5 7 29.84 1011 10 16.0934 0 0
9:54 am 09:54 Sunny 47 8.3 32 0 56 56 N 6 9 29.83 1010 10 16.0934 0 0
10:54 am 10:54 Sunny 55 12.8 35 1.7 47 47 NW 7 11 29.83 1010 10 16.0934 0 0
11:54 am 11:54 Sunny 59 15 35 1.7 41 41 NW 5 7 29.79 1009 10 16.0934 0 0
12:54 pm 12:54 Sunny 61 16.1 33 0.6 35 35 Calm 29.74 1007 10 16.0934 0 0
1:54 pm 13:54 Sunny 64 17.8 35 1.7 34 34 Calm 29.71 1006 10 16.0934 0 0
2:54 pm 14:54 Sunny 63 17.2 33 0.6 33 33 SSE 6 9 29.7 1006 10 16.0934 0 0
3:54 pm 15:54 Sunny 63 17.2 35 1.7 35 35 S 6 9 29.72 1006 10 16.0934 0 0
4:54 pm 16:54 Sunny 60 15.6 35 1.7 39 39 S 6 9 29.72 1006 10 16.0934 0 0
5:54 pm 17:54 Clear 47 8.3 38 3.3 71 71 NE 10 17 29.74 1007 10 16.0934 0 0
6:54 pm 18:54 Clear 44 6.7 35 1.7 71 71 N 12 19 29.76 1008 10 16.0934 0 0
7:54 pm 19:54 Clear 43 6.1 33 0.6 68 68 NE 12 19 29.77 1008 10 16.0934 0 0
8:54 pm 20:54 Clear 39 3.9 32 0 76 76 N 7 11 29.78 1008 10 16.0934 0 0
9:54 pm 21:54 Clear 37 2.8 31 -0.6 79 79 N 7 11 29.78 1008 10 16.0934 0 0
10:54 pm 22:54 Clear 36 2.2 31 -0.6 82 82 NNE 13 20 29.74 1007 10 16.0934 0 0
11:54 pm 23:54 Clear 36 2.2 31 -0.6 82 82 NNE 15 24 29.74 1007 10 16.0934 0 0

Powered by AerisWeather